sat.trackr.live / text

‹ back to catalog

UNKNOWN

NORAD 81683

UNKNOWN UNKNOWN UNKNOWN

§ Identity

Operator
Country
Launch date
Launch site
Launch vehicle
Mass (kg)
RCS (m²)

External: N2YO · Heavens-Above

§ Orbital elements

Epoch: 2026-09-16T06:45:43.141248Z

Period
98.69 min
Inclination
81.2160°
Eccentricity
0.0025205
Mean motion
14.59065969 rev/d
Perigee alt
678.4 km
Apogee alt
714.0 km
Semi-major
7,074.3 km
B*
6.3525e-4
RAAN
2.2255°
Arg perigee
166.0765°
Mean anomaly
194.1133°
Rev number
67,631

§ Raw data

UNKNOWN1 81683U          26259.28174932  .00003014  00000+0  63525-3 0  99972 81683  81.2160   2.2255 0025205 166.0765 194.1133 14.59065969676316

JSON: /api/v1/satellites/81683 · /tle

For live sub-satellite position, see the globe view (requires WebGL).

§ Visibility from observer

Set your observer location to see the next 7 days of passes ≥ 10°. The values pass through the URL so the page stays shareable.

No JS? Fill the form by hand. The geolocation button needs JavaScript.